Stations météo

réclame
Mon MeteoGroup
Mont-De-Marsan, France (7607): Température de l'air & dewpoint: 17.09.2017 22:00:00 - 23.09.2017 22:00:00 (CEST)Mont-De-Marsan, France (7607): Température de l'air 5cm: 17.09.2017 22:00:00 - 23.09.2017 22:00:00 (CEST)Mont-De-Marsan, France (7607): Température de l'air -20cm & Température de l'air -100cm: 17.09.2017 22:00:00 - 23.09.2017 22:00:00 (CEST)Mont-De-Marsan, France (7607): Vitesse du vent & gusts: 17.09.2017 22:00:00 - 23.09.2017 22:00:00 (CEST)Mont-De-Marsan, France (7607): Direction du vent: 17.09.2017 22:00:00 - 23.09.2017 22:00:00 (CEST)Mont-De-Marsan, France (7607): reduced air pressure: 17.09.2017 22:00:00 - 23.09.2017 22:00:00 (CEST)Mont-De-Marsan, France (7607): visibility: 17.09.2017 22:00:00 - 23.09.2017 22:00:00 (CEST)Mont-De-Marsan, France (7607): Ensoleillement: 17.09.2017 22:00:00 - 23.09.2017 22:00:00 (CEST)Mont-De-Marsan, France (7607): Quantités de précipitations: 17.09.2017 22:00:00 - 23.09.2017 22:00:00 (CEST)
Date & Time tt [°C] td [°C] tt 5cm [°C] tt -20cm [°C] tt -100cm [°C] ff [km/h] ff [knt] fx [km/h] fx [knt] dd ppp [hPa] vv [km] sd [min] rr [mm]
23.09.2017 22:00:00 - - - - - - - - - - - - - -
23.09.2017 21:00:00 18,9 14,0 13,5 18,8 18,4 0 0 8 5 N 1018,3 55 0 0,0
23.09.2017 20:00:00 21,5 14,4 16,3 18,6 18,4 3 1 6 3 NE 1017,6 60 32 0,0
23.09.2017 19:00:00 26,6 11,9 29,6 18,3 18,4 3 1 15 8 SSE 1017,3 59 60 0,0
23.09.2017 18:00:00 27,2 12,0 32,2 18,1 18,4 8 5 16 8 S 1017,1 60 60 0,0
23.09.2017 17:00:00 27,5 12,3 33,0 17,7 18,4 6 3 17 9 E 1017,4 58 60 0,0
23.09.2017 16:00:00 26,9 12,9 33,3 17,4 18,4 8 4 16 9 SE 1017,9 18 60 0,0
23.09.2017 15:00:00 25,9 13,4 32,6 17,2 18,4 7 4 20 11 E 1018,3 55 60 0,0
23.09.2017 14:00:00 24,4 14,2 30,7 17,0 18,4 10 6 22 12 E 1018,7 50 60 0,0
23.09.2017 13:00:00 23,1 13,6 25,6 17,0 18,4 12 6 29 16 ESE 1019,2 38 60 0,0
23.09.2017 12:00:00 21,4 13,8 24,7 17,0 18,4 18 10 24 13 E 1019,4 20 60 0,0
23.09.2017 11:00:00 18,2 14,3 18,1 17,0 18,4 11 6 15 8 E 1019,7 24 55 0,0
23.09.2017 10:00:00 13,6 12,8 12,5 17,0 18,4 6 3 9 5 E 1020,2 19 60 0,0
23.09.2017 09:00:00 10,4 10,1 8,7 17,2 18,4 4 2 12 7 E 1020,2 4,2 15 0,0
23.09.2017 08:00:00 9,0 8,7 8,1 17,3 18,4 9 5 11 6 ENE 1020,4 0,4 0 0,0
23.09.2017 07:00:00 9,1 8,8 8,1 17,4 18,4 9 5 10 5 E 1020,5 0,3 0 0,0
23.09.2017 06:00:00 9,3 8,8 8,0 17,5 18,5 5 3 8 5 NE 1020,8 1,1 0 0,0
23.09.2017 05:00:00 9,8 9,3 9,2 17,6 18,5 6 3 8 4 E 1021,2 0,1 0 0,0
23.09.2017 04:00:00 9,9 9,3 7,5 17,8 18,5 5 3 6 4 E 1021,8 0,3 0 0,0
23.09.2017 03:00:00 10,7 10,1 7,9 17,9 18,5 0 0 5 3 N 1022,3 1,1 0 0,0
23.09.2017 02:00:00 10,9 10,1 7,4 18,0 18,5 4 2 5 3 ENE 1022,5 56 0 0,0
23.09.2017 01:00:00 12,4 11,6 7,7 18,1 18,5 3 2 5 3 E 1022,4 13 0 0,0
23.09.2017 00:00:00 12,9 12,1 8,6 18,1 18,5 4 2 7 4 ENE 1022,6 17 0 0,0
22.09.2017 23:00:00 13,5 12,4 9,8 18,1 18,4 2 1 4 2 ENE 1022,7 19 0 0,0
22.09.2017 22:00:00 14,3 13,0 10,1 18,2 18,5 0 0 3 2 N 1022,5 20 0 0,0
22.09.2017 21:00:00 15,8 13,6 11,2 18,1 18,5 0 0 0 0 N 1022,3 60 0 0,0
22.09.2017 20:00:00 18,5 13,4 15,0 17,9 18,5 0 0 3 2 N 1021,9 60 29 0,0
22.09.2017 19:00:00 20,3 13,0 21,0 17,7 18,5 4 2 7 4 E 1021,8 60 32 0,0
22.09.2017 18:00:00 21,0 12,7 23,8 17,7 18,5 4 2 9 5 ESE 1021,8 60 41 0,0
22.09.2017 17:00:00 20,6 13,3 22,8 17,5 18,5 4 2 13 7 NNE 1022,1 60 37 0,0
22.09.2017 16:00:00 19,4 14,4 21,2 17,3 18,5 8 4 14 8 NNW 1022,6 60 0 0,0
22.09.2017 15:00:00 18,9 14,6 20,4 17,2 18,5 7 4 13 7 NW 1022,7 60 0 0,0
22.09.2017 14:00:00 18,8 14,1 22,5 17,1 18,5 4 2 9 5 N 1022,8 60 0 0,0
22.09.2017 13:00:00 17,1 14,4 19,3 17,1 18,5 3 1 12 7 ESE 1022,8 45 0 0,0
22.09.2017 12:00:00 15,5 14,5 16,1 17,0 18,5 0 0 6 3 N 1022,9 20 0 0,0
22.09.2017 11:00:00 14,4 13,8 15,2 17,1 18,5 0 0 14 8 N 1022,7 6 0 0,0
22.09.2017 10:00:00 13,9 13,3 13,5 17,2 18,5 2 1 9 5 NNE 1022,6 7 0 0,0
22.09.2017 09:00:00 13,1 12,6 12,4 17,3 18,5 3 2 9 5 S 1022,3 7 0 0,0
22.09.2017 08:00:00 11,9 11,4 11,2 17,4 18,5 0 0 6 4 N 1021,8 5 0 0,0
22.09.2017 07:00:00 11,4 10,9 8,7 17,5 18,5 4 2 8 4 E 1021,2 3,9 0 0,0
22.09.2017 06:00:00 11,3 10,7 8,6 17,6 18,5 2 1 4 2 E 1021,3 1,4 0 0,0
22.09.2017 05:00:00 12,2 11,6 7,9 17,7 18,5 0 0 5 3 N 1021,5 8 0 0,0
22.09.2017 04:00:00 13,0 12,5 10,5 17,8 18,6 3 1 6 3 SW 1021,6 5 0 0,2
22.09.2017 03:00:00 12,6 12,0 8,7 17,9 18,6 4 2 6 3 W 1021,6 4,5 0 0,0
22.09.2017 02:00:00 13,6 12,8 8,9 18,0 18,6 0 0 8 5 N 1021,2 8 0 0,0
22.09.2017 01:00:00 13,9 13,3 11,2 18,0 18,6 7 4 10 5 W 1021,0 14 0 0,0
22.09.2017 00:00:00 14,3 13,5 9,4 18,1 18,6 5 3 11 6 W 1020,7 19 0 0,0
21.09.2017 23:00:00 14,7 13,6 13,3 18,1 18,6 9 5 14 7 W 1020,5 41 0 0,0
21.09.2017 22:00:00 15,5 13,7 13,4 18,1 18,6 9 5 15 8 W 1020,3 60 0 0,0
21.09.2017 21:00:00 16,8 14,1 15,6 18,0 18,6 13 7 20 11 W 1019,8 60 0 0,0
21.09.2017 20:00:00 18,6 13,7 17,1 17,8 18,6 11 6 25 14 W 1018,9 60 24 0,0
21.09.2017 19:00:00 21,7 13,1 21,5 17,5 18,6 21 11 29 16 W 1017,9 57 18 0,0
21.09.2017 18:00:00 25,0 12,2 27,2 17,3 18,6 17 9 26 14 WNW 1017,0 60 60 0,0
21.09.2017 17:00:00 26,0 11,0 30,3 17,0 18,6 12 7 25 13 W 1016,6 60 60 0,0
21.09.2017 16:00:00 25,3 14,4 30,1 16,6 18,6 8 5 21 11 W 1016,5 60 60 0,0
21.09.2017 15:00:00 24,4 13,9 29,6 16,3 18,6 11 6 19 10 W 1016,7 60 60 0,0
21.09.2017 14:00:00 23,6 12,9 30,0 16,2 18,7 11 6 18 10 WSW 1017,0 14 60 0,0
21.09.2017 13:00:00 21,5 13,9 27,7 16,1 18,7 3 2 13 7 S 1017,3 18 60 0,0
21.09.2017 12:00:00 19,1 11,6 24,0 16,2 18,7 2 1 9 5 S 1017,5 60 60 0,0
21.09.2017 11:00:00 15,9 9,6 18,7 16,2 18,7 2 1 9 5 SE 1017,6 60 60 0,0
21.09.2017 10:00:00 12,3 8,4 10,0 16,4 18,7 5 3 10 5 E 1017,7 60 60 0,0
21.09.2017 09:00:00 8,8 7,4 3,0 16,5 18,7 6 4 9 5 ENE 1017,2 60 48 0,0
21.09.2017 08:00:00 5,4 4,5 2,9 16,7 18,7 0 0 8 4 N 1017,2 56 0 0,0
21.09.2017 07:00:00 5,5 4,6 3,5 16,8 18,7 6 4 8 5 ENE 1017,0 60 0 0,0
21.09.2017 06:00:00 6,4 5,3 4,1 17,0 18,7 6 3 8 4 E 1017,0 41 0 0,0
21.09.2017 05:00:00 6,9 5,5 4,5 17,2 18,7 4 2 8 4 ENE 1017,3 52 0 0,0
21.09.2017 04:00:00 7,2 5,8 4,5 17,3 18,8 6 3 8 5 ENE 1017,5 50 0 0,0
21.09.2017 03:00:00 8,7 6,5 4,8 17,4 18,7 5 3 6 4 E 1017,9 60 0 0,0
21.09.2017 02:00:00 8,7 6,5 6,2 17,6 18,7 6 4 8 5 ENE 1017,8 60 0 0,0
21.09.2017 01:00:00 9,8 7,0 6,0 17,7 18,8 6 3 7 4 ENE 1018,0 60 0 0,0
21.09.2017 00:00:00 11,1 7,6 6,5 17,8 18,8 6 3 8 4 ENE 1018,4 60 0 0,0
20.09.2017 23:00:00 12,9 8,0 8,3 17,8 18,8 5 3 10 5 E 1018,5 60 0 0,0
20.09.2017 22:00:00 13,4 8,0 8,4 17,8 18,8 7 4 9 5 E 1018,7 60 0 0,0
20.09.2017 21:00:00 14,2 8,4 8,8 17,8 18,8 7 4 9 5 ENE 1019,1 60 0 0,0
20.09.2017 20:00:00 18,2 8,5 14,7 17,5 18,8 6 3 16 9 E 1019,0 60 37 0,0
20.09.2017 19:00:00 20,9 7,5 23,4 17,4 18,8 9 5 18 10 E 1019,2 60 60 0,0
20.09.2017 18:00:00 21,7 8,6 26,5 17,1 18,8 10 5 19 10 ESE 1019,5 60 60 0,0
20.09.2017 17:00:00 21,9 7,3 28,5 16,7 18,8 11 6 22 12 ESE 1020,0 60 60 0,0
20.09.2017 16:00:00 21,7 7,5 28,5 16,4 18,8 9 5 19 11 ESE 1020,5 60 60 0,0
20.09.2017 15:00:00 21,3 6,4 28,0 16,1 18,8 8 5 26 14 ESE 1020,9 18 60 0,0
20.09.2017 14:00:00 20,0 8,6 26,7 15,9 18,8 13 7 25 13 ESE 1021,5 60 60 0,0
20.09.2017 13:00:00 18,7 8,4 26,3 15,8 18,8 9 5 24 13 ESE 1022,3 20 60 0,0
20.09.2017 12:00:00 17,7 9,6 22,6 15,8 18,9 6 3 15 8 ESE 1022,9 60 60 0,0
20.09.2017 11:00:00 14,8 9,8 17,6 15,9 18,9 7 4 11 6 E 1023,4 60 60 0,0
20.09.2017 10:00:00 10,4 8,5 8,4 16,0 18,9 4 2 6 4 E 1023,9 52 60 0,0
20.09.2017 09:00:00 6,5 5,8 2,7 16,2 18,9 6 3 9 5 ENE 1024,2 44 45 0,0
20.09.2017 08:00:00 3,7 3,1 1,6 16,4 18,9 8 4 9 5 ENE 1024,2 39 0 0,0
20.09.2017 07:00:00 3,5 2,6 2,0 16,5 18,9 7 4 9 5 ENE 1024,1 35 0 0,0
20.09.2017 06:00:00 4,4 3,5 2,3 16,7 18,9 4 2 5 3 NE 1024,6 60 0 0,0
20.09.2017 05:00:00 5,7 5,1 1,9 16,9 18,9 0 0 5 3 N 1024,7 56 0 0,0
20.09.2017 04:00:00 5,8 4,9 1,9 17,1 18,9 2 1 4 2 E 1024,9 60 0 0,0
20.09.2017 03:00:00 6,5 5,4 2,5 17,2 18,9 2 1 4 2 NE 1025,2 60 0 0,0
20.09.2017 02:00:00 7,5 6,4 3,0 17,3 18,9 0 0 5 3 N 1025,3 55 0 0,0
20.09.2017 01:00:00 8,4 7,3 3,6 17,5 19,0 4 2 5 3 E 1025,5 60 0 0,0
20.09.2017 00:00:00 9,1 7,7 4,4 17,5 19,0 0 0 5 3 N 1025,8 60 0 0,0
19.09.2017 23:00:00 10,5 8,1 5,0 17,6 19,0 0 0 6 3 N 1025,9 44 0 0,0
19.09.2017 22:00:00 12,5 8,2 7,8 17,7 19,0 6 3 11 6 NNW 1025,9 60 0 0,0
19.09.2017 21:00:00 13,6 8,6 8,6 17,6 19,0 4 2 13 7 NW 1025,5 60 0 0,0
19.09.2017 20:00:00 15,7 9,1 14,3 17,5 19,0 9 5 23 13 NW 1024,8 60 39 0,0
19.09.2017 19:00:00 18,0 9,1 18,6 17,4 19,0 18 10 29 16 NW 1024,3 60 56 0,0
19.09.2017 18:00:00 19,9 9,5 19,1 17,1 19,0 19 10 35 19 WNW 1024,0 60 49 0,0
19.09.2017 17:00:00 20,1 9,9 20,2 16,9 19,0 23 12 36 20 WNW 1024,0 60 55 0,0
19.09.2017 16:00:00 19,8 9,9 20,5 16,7 19,0 22 12 38 21 WNW 1024,2 60 47 0,0
19.09.2017 15:00:00 20,6 8,9 20,5 16,5 19,1 21 11 36 19 W 1024,6 60 37 0,0
19.09.2017 14:00:00 18,8 8,4 19,2 16,4 19,1 15 8 29 15 W 1024,9 60 47 0,0
19.09.2017 13:00:00 18,2 9,8 18,4 16,2 19,0 13 7 28 15 WNW 1025,3 60 32 0,0
19.09.2017 12:00:00 17,7 10,6 22,0 16,3 19,1 11 6 22 12 W 1025,2 52 60 0,0
19.09.2017 11:00:00 14,4 12,1 13,9 16,3 19,1 7 4 10 6 WSW 1025,3 20 31 0,0
19.09.2017 10:00:00 11,9 10,8 11,8 16,4 19,1 0 0 4 2 N 1025,0 19 22 0,0
19.09.2017 09:00:00 10,2 9,7 5,3 16,6 19,1 2 1 5 3 ESE 1024,6 19 17 0,0
19.09.2017 08:00:00 6,6 5,9 3,2 16,7 19,1 2 1 3 1 ESE 1024,6 59 0 0,0
19.09.2017 07:00:00 6,2 5,5 3,1 16,9 19,1 2 1 3 2 ENE 1024,4 60 0 0,0
19.09.2017 06:00:00 7,1 6,7 3,4 17,1 19,1 0 0 5 3 N 1024,3 18 0 0,0
19.09.2017 05:00:00 7,4 6,8 2,9 17,3 19,1 0 0 3 2 N 1024,2 56 0 0,0
19.09.2017 04:00:00 7,1 6,4 2,9 17,4 19,1 0 0 2 1 N 1024,3 19 0 0,0
19.09.2017 03:00:00 8,1 7,5 3,0 17,6 19,2 0 0 2 1 N 1024,3 3,5 0 0,0
19.09.2017 02:00:00 8,9 8,0 3,7 17,7 19,2 0 0 6 3 N 1024,1 33 0 0,0
19.09.2017 01:00:00 9,7 8,5 6,0 17,9 19,2 3 2 11 6 WSW 1023,9 58 0 0,0
19.09.2017 00:00:00 10,6 9,2 6,6 18,0 19,2 8 4 14 7 W 1024,0 60 0 0,0
18.09.2017 23:00:00 11,1 9,7 7,2 18,0 19,2 5 3 9 5 W 1023,5 60 0 0,0
18.09.2017 22:00:00 12,4 9,6 10,2 18,0 19,2 9 5 18 10 WNW 1023,3 60 0 0,0
18.09.2017 21:00:00 13,5 9,5 11,8 18,0 19,2 12 7 16 9 WNW 1022,4 60 0 0,0
18.09.2017 20:00:00 15,7 9,4 14,1 17,9 19,2 11 6 23 13 WNW 1021,1 60 41 0,0
18.09.2017 19:00:00 18,4 10,0 19,6 17,7 19,2 16 9 29 16 NW 1020,3 60 60 0,0
18.09.2017 18:00:00 20,0 11,0 19,7 17,5 19,3 16 9 35 19 WNW 1019,6 60 49 0,0
18.09.2017 17:00:00 20,1 10,8 21,0 17,3 19,2 16 9 26 14 WNW 1019,2 60 55 0,0
18.09.2017 16:00:00 17,3 12,2 16,3 17,2 19,3 10 5 26 14 NW 1019,2 60 13 0,0
18.09.2017 15:00:00 18,3 11,8 20,5 17,0 19,3 11 6 21 11 W 1019,2 60 20 0,0
18.09.2017 14:00:00 17,1 13,2 16,8 16,9 19,3 10 5 16 9 WNW 1019,3 60 0 0,0
18.09.2017 13:00:00 15,8 13,3 16,4 16,9 19,3 10 5 17 9 W 1019,2 19 0 0,0
18.09.2017 12:00:00 15,1 13,6 15,6 16,9 19,3 11 6 20 11 W 1018,9 15 0 0,2
18.09.2017 11:00:00 14,7 13,2 13,9 16,9 19,3 9 5 16 8 WSW 1018,6 55 0 0,0
18.09.2017 10:00:00 13,4 12,8 13,2 17,0 19,3 5 3 10 6 WSW 1018,3 24 0 1,2
18.09.2017 09:00:00 13,1 12,5 12,9 17,0 19,3 7 4 11 6 SW 1017,9 4,2 0 1,3
18.09.2017 08:00:00 13,0 12,2 12,8 17,0 19,4 0 0 9 5 N 1017,6 16 0 1,0
18.09.2017 07:00:00 13,0 12,2 12,9 17,1 19,3 6 4 15 8 SW 1017,5 4,7 0 1,0
18.09.2017 06:00:00 13,4 12,8 13,1 17,1 19,4 8 4 13 7 SW 1017,4 16 0 0,8
18.09.2017 05:00:00 13,4 12,6 13,2 17,1 19,4 5 3 9 5 SSW 1017,5 12 0 0,6
18.09.2017 04:00:00 13,6 13,0 13,3 17,1 19,4 4 2 10 5 SW 1017,8 14 0 0,4
18.09.2017 03:00:00 13,7 12,9 13,4 17,2 19,5 5 3 10 5 S 1018,0 10 0 1,0
18.09.2017 02:00:00 13,7 12,8 13,3 17,2 19,4 4 2 10 5 SSW 1018,4 19 0 0,2
18.09.2017 01:00:00 13,8 12,7 13,0 17,2 19,4 6 3 11 6 SSW 1018,8 17 0 0,4
18.09.2017 00:00:00 13,5 12,6 13,0 17,3 19,5 0 0 6 3 N 1019,0 10 0 0,0
17.09.2017 23:00:00 13,6 12,8 13,2 17,3 19,5 3 2 8 4 SSW 1019,3 18 0 0,0
17.09.2017 22:00:00 13,5 12,7 13,0 17,3 19,5 3 2 13 7 S 1019,0 12 0 0,4

tt = Température de l'air
td = dewpoint
tt 5cm = Température de l'air 5cm
tt -20cm = Température de l'air -20cm
tt -100cm = Température de l'air -100cm
ff = Vitesse du vent
fx = gusts
dd = Direction du vent
ppp = reduced air pressure
vv = visibility
sd = Ensoleillement
rr = Quantités de précipitations

stations d'obs. à proximité